User: anonymous   Login
Location: Maiden_LMO
(35.5760°N, 81.2120°W)
Time: 23:44:53
(UTC-04:00)
Language:

Cosmos 2278 Rocket - Orbit

View from above orbital plane
View from above orbital plane
View from above satellite
View from above satellite

Ground track
Ground track

The orbit data is extracted from the following two-line orbital elements,

1 23088U 94023B   16241.81696430 -.00000325  00000-0 -14435-3 0  9992
2 23088  71.0002 175.6948 0004245 219.5174 140.5639 14.14644255154191
Epoch (UTC): 28 August 2016 19:36:25
Eccentricity: 0.0004245
inclination: 71.0002°
perigee height: 840 km
apogee height: 846 km
right ascension of ascending node: 175.6948°
argument of perigee: 219.5174°
revolutions per day: 14.14644255
mean anomaly at epoch: 140.5639°
orbit number at epoch: 15419

The dashed part of the orbit path shows where the satellite is in the earth's shadow,  

DLR